Regional Weather Roundup
Issued by NWS

Home | Current Version | Previous Version | Graphics & Text | Print | Product List | Glossary On
Versions: 1 2 3 4 5 6 7 8 9 10 11 12 13 14 15 16 17 18 19 20 21 22 23 24 25 26 27 28
000
ASUS45 KCYS 200210
RWRWY

WYOMING REGIONAL WEATHER ROUNDUP
NATIONAL WEATHER SERVICE CHEYENNE WY
800 PM MDT WED JUL 19 2017

NOTE:  "FAIR" INDICATES FEW OR NO CLOUDS BELOW 12,000 FEET
WITH NO SIGNIFICANT WEATHER AND/OR OBSTRUCTIONS TO VISIBILITY.

WYZ001-200300-
YELLOWSTONE NATIONAL PARK

CITY           SKY/WX    TMP DP  RH WIND       PRES   REMARKS
LK YELLOWSTONE   N/A     72  28  19 VRB5      30.32R
W YELLOWSTONE  NOT AVBL

$$
WYZ002>013-054>058-071-098>099-200300-
NORTHERN WYOMING

CITY           SKY/WX    TMP DP  RH WIND       PRES   REMARKS
JACKSON        CLEAR     82  30  15 W7        30.18R
CODY           FAIR      80  43  26 NE5       30.08R
GREYBULL       FAIR      91  37  15 N12       29.94R
WORLAND        FAIR      89  47  23 SE15      29.97R
SHERIDAN       FAIR      79  56  45 SW6       30.02S
BUFFALO        FAIR      82  44  26 W6        30.12R
GILLETTE       FAIR      83  45  26 NE8       30.06R
HULETT         FAIR      81  52  36 E7        30.09R
NEWCASTLE      FAIR      86  48  26 N9        30.04R

$$
WYZ014>020-022>026-101>103-200300-
CENTRAL WYOMING

CITY           SKY/WX    TMP DP  RH WIND       PRES   REMARKS
BIG PINEY      CLOUDY    80  48  32 VRB3      30.24R
PINEDALE       FAIR      75  45  33 CALM      30.26R
DUBOIS         FAIR      81  30  16 NW8       30.24R
LANDER         FAIR      83  47  28 SW10      30.09R
RIVERTON       LGT RAIN  83  48  29 S5        30.08R
CASPER         FAIR      85  43  22 SE7       30.13R
DOUGLAS        FAIR      86  42  21 NE12      30.08R

$$
WYZ021-027>030-104>119-200300-
SOUTHERN WYOMING

CITY           SKY/WX    TMP DP  RH WIND       PRES   REMARKS
EVANSTON       FAIR      69  51  52 S6        30.28F
KEMMERER         N/A     73  46  38 S16G24    30.29R
FORT BRIDGER   FAIR      68  51  54 S14       30.30F
ROCK SPRINGS   LGT RAIN  70  50  49 SW24G38   30.26R
RAWLINS        LGT RAIN  68  51  54 SW21      30.31R
SARATOGA       LGT RAIN  64  54  68 SW13G21   30.36R
LARAMIE        CLOUDY    65  51  60 N9        30.33S
CHEYENNE       CLOUDY    73  52  47 N13       30.21R
TORRINGTON     FAIR      90  56  31 NE18G28   29.97R
PINE BLUFFS    MOCLDY    73  54  49 SW22G29   30.11R

$$




USA.gov is the U.S. government's official web portal to all federal, state and local government web resources and services.